Hourly Data Report for October 26, 2014

All times are specified in Local Standard Time (LST). Add 1 hour to adjust for Daylight Saving Time where and when it is observed.

IQALUIT CLIMATE
NUNAVUT

63°44'50.000" N
68°32'40.000" W
33.50 m
2402592
71321
XFB

Download Data

Hourly Data (October 2014)
Hourly Data Report for October 26, 2014
Temp Definition
°C
Dew Point Temp Definition
°C
Rel Hum Definition
%
Wind Dir Definition
10's deg

Wind Spd Definition
km/h
Visibility Definition
km
Stn Press Definition
kPa
Hmdx Definition


Wind Chill Definition


Weather Definition


TIME
00:00 -13.0 -18.5 63 7 9   101.54   -18 LegendNANA
01:00 -12.4 -17.0 68 6 6   101.55   -16 LegendNANA
02:00 -10.9 -14.7 73 6 8   101.53   -16 LegendNANA
03:00 -9.9 -13.3 76 2 5   101.50   -13 LegendNANA
04:00 -9.3 -12.1 80 2 1   101.50   -10 LegendNANA
05:00 -9.2 -11.8 81 26 5   101.49   -12 LegendNANA
06:00 -9.6 -12.0 83 33 6   101.49   -13 LegendNANA
07:00 -10.7 -12.5 87 36 5   101.51   -14 LegendNANA
08:00 -9.8 -12.3 82 35 4   101.51   -12 LegendNANA
09:00 -8.6 -11.1 82 0 1   101.50   -9 LegendNANA
10:00 -7.9 -10.5 81 4 3   101.50   -9 LegendNANA
11:00 -6.4 -9.7 77   0   101.50     LegendNANA
12:00 -7.5 -10.4 80 35 3   101.47   -9 LegendNANA
13:00 -5.6 -10.0 71 11 15   101.45   -11 LegendNANA
14:00 -4.7 -8.8 73 11 12   101.46   -9 LegendNANA
15:00 -3.6 -7.8 73 12 19   101.45   -10 LegendNANA
16:00 -3.6 -7.7 73 11 25   101.47   -11 LegendNANA
17:00 -3.6 -7.7 73 11 26   101.49   -11 LegendNANA
18:00 -3.1 -7.3 72 11 25   101.49   -10 LegendNANA
19:00 -3.1 -7.2 73 11 25   101.47   -10 LegendNANA
20:00 -2.9 -7.4 72 11 28   101.47   -10 LegendNANA
21:00 -2.8 -7.2 71 12 29   101.49   -10 LegendNANA
22:00 -2.6 -6.7 74 12 29   101.48   -10 LegendNANA
23:00 -2.8 -6.7 74 12 28   101.46   -10 LegendNANA

Notes on Data Quality.

Legend

  • E = Estimated
  • M = Missing
  • NA = Not Available
  • ‡ = Partner data that is not subject to review by the National Climate Archives
Date modified: